Location: Brunnen
(48.6541°N, 10.9920°E)
Time: 08:18:15
(UTC+00:00)

Helios 1A - Pass Details

Date: 01 June 2020
Orbit: 584 x 602 km, 98.2° (Epoch: 13 July)

Event Time Altitude Azimuth Distance (km) Brightness Sun altitude
Exits shadow 23:01:47 46° 164° (SSE) 809 3.2 -19.1°
Maximum altitude 23:03:00 89° 94° (E) 603 2.9 -19.1°
Drops below altitude 10° 23:07:13 10° 346° (NNW) 1,936 6.8 -19.1°
Sets 23:09:23 0° 347° (NNW) 2,840 8.0 -19.1°
